Location: Dugenta
(41.1333°N, 14.4500°E)
Time: 11:27:15
(UTC+00:00)

Cosmos 2333 Rocket - Pass Details

Date: 03 March 2021
Orbit: 837 x 864 km, 70.8° (Epoch: 20 April)

Event Time Altitude Azimuth Distance (km) Brightness Sun altitude
Rises 18:45:30 0° 198° (SSW) 3,382 5.4 -21.4°
Reaches altitude 10° 18:47:55 10° 198° (SSW) 2,454 4.7 -21.9°
Maximum altitude 18:53:33 80° 112° (ESE) 864 2.0 -22.9°
Drops below altitude 10° 18:59:16 10° 26° (NNE) 2,488 4.5 -24.0°
Sets 19:01:44 0° 26° (NNE) 3,432 5.3 -24.4°
